Weather History for Venice, Italy

Change the Weather History Date:

Monday, April 14, 2014

  Actual Average Record
Temperature  
Mean Temperature 56 °F -  
Max Temperature 65 °F 65 °F 73 °F (2007)
Min Temperature 48 °F 50 °F 39 °F (1998)
Degree Days  
Heating Degree Days 8    
Growing Degree Days 6 (Base 50)    
Moisture  
Dew Point 50 °F    
Average Humidity 76    
Maximum Humidity 100    
Minimum Humidity 47    
Precipitation  
Precipitation 0.02 in 0.09 in - ()
Sea Level Pressure  
Sea Level Pressure 29.92 in    
Wind  
Wind Speed 5 mph ()    
Max Wind Speed 15 mph    
Max Gust Speed -    
Visibility 6.2 miles    
Events Fog , Rain    
Averages and records for this station are not official NWS values.
T = Trace of Precipitation, MM = Missing Value Source: Averaged Metar Reports

Daily Weather History Graph

Daily Weather History Graph

Search for Another Location

Airport:

Trip Planner

Search our weather history database for the weather conditions in past years. The results will help you decide how hot, cold, wet, or windy it might be!

Date:

Astronomy

Apr. 14, 2014 Rise Set
Actual Time 6:27 AM CEST 7:55 PM CEST
Civil Twilight 5:56 AM CEST 8:26 PM CEST
Nautical Twilight 5:19 AM CEST 9:03 PM CEST
Astronomical Twilight 4:39 AM CEST 9:43 PM CEST
Moon 7:15 PM CEST (4/14) 5:52 AM CEST (4/14)
Length of Visible Light 14h 29m
Length of Day
13h 27m
Waxing Gibbous, 99% of the Moon is Illuminated
Apr 14
Waxing Gibbous
Apr 15
Full
Apr 22
Last Quarter
Apr 29
New
May 7
First Quarter

Hourly Weather History & Observations

Time (CEST) Temp. Dew Point Humidity Pressure Visibility Wind Dir Wind Speed Gust Speed Precip Events Conditions
12:20 AM 55.4 °F 48.2 °F 77% 30.04 in - Variable 3.5 mph - N/A   Clear
12:50 AM 55.4 °F 48.2 °F 77% 30.04 in - Variable 2.3 mph - N/A   Clear
1:20 AM 55.4 °F 48.2 °F 77% 30.04 in - Variable 3.5 mph - N/A   Clear
1:50 AM 53.6 °F 48.2 °F 82% 30.04 in - NW 4.6 mph - N/A   Clear
2:00 AM 53 °F 47 °F 73% 30.04 in 12 mi WNW 3.5 mph - -  
2:20 AM 51.8 °F 48.2 °F 88% 30.04 in - Variable 2.3 mph - N/A   Clear
2:50 AM 51.8 °F 46.4 °F 82% 30.01 in - Variable 1.2 mph - N/A   Clear
3:20 AM 51.8 °F 48.2 °F 88% 30.01 in - Calm Calm - N/A   Clear
3:50 AM 51.8 °F 48.2 °F 88% 30.01 in - Calm Calm - N/A   Clear
4:20 AM 51.8 °F 48.2 °F 88% 30.01 in - Variable 1.2 mph - N/A   Clear
4:50 AM 51.8 °F 48.2 °F 88% 30.01 in - Variable 1.2 mph - N/A   Clear
5:00 AM 51 °F 47 °F 83% 30.02 in 11 mi WNW 2.3 mph - -   Scattered Clouds
5:20 AM 50.0 °F 46.4 °F 87% 30.01 in - Variable 2.3 mph - N/A   Clear
5:50 AM 50.0 °F 46.4 °F 87% 30.01 in 6.2 mi Variable 2.3 mph - N/A   Partly Cloudy
6:20 AM 48.2 °F 46.4 °F 93% 30.04 in 1.9 mi Variable 1.2 mph - N/A Fog Patches of Fog
6:50 AM 50.0 °F 48.2 °F 94% 30.01 in 1.9 mi Variable 1.2 mph - N/A Fog Shallow Fog
7:20 AM 50.0 °F 48.2 °F 94% 30.01 in 1.9 mi Calm Calm - N/A Fog Patches of Fog
7:50 AM 50.0 °F 48.2 °F 94% 30.01 in 2.5 mi Variable 1.2 mph - N/A   Mist
8:00 AM 51 °F 49 °F 91% 30.03 in 2 mi NNW 1.2 mph - -   Mist
8:20 AM 53.6 °F 51.8 °F 94% 30.01 in 3.1 mi Calm Calm - N/A   Mist
8:50 AM 55.4 °F 55.4 °F 100% 30.01 in 3.7 mi Variable 1.2 mph - N/A   Unknown
9:20 AM 59.0 °F 55.4 °F 88% 30.01 in 4.3 mi Calm Calm - N/A   Unknown
9:50 AM 59.0 °F 51.8 °F 77% 30.01 in - Calm Calm - N/A   Clear
10:20 AM 60.8 °F 50.0 °F 68% 30.01 in 6.2 mi Variable 1.2 mph - N/A   Partly Cloudy
10:50 AM 60.8 °F 50.0 °F 68% 30.01 in 6.2 mi Variable 3.5 mph - N/A   Partly Cloudy
11:00 AM 62 °F 50 °F 56% 30.02 in 7 mi SSE 2.3 mph - -   Scattered Clouds
11:20 AM 62.6 °F 48.2 °F 59% 29.98 in 6.2 mi SSE 4.6 mph - N/A   Partly Cloudy
11:50 AM 64.4 °F 48.2 °F 56% 29.98 in 6.2 mi South 6.9 mph - N/A   Partly Cloudy
12:20 PM 64.4 °F 48.2 °F 56% 29.95 in - South 6.9 mph - N/A   Clear
12:50 PM 64.4 °F 48.2 °F 56% 29.95 in - South 5.8 mph - N/A   Clear
1:20 PM 62.6 °F 48.2 °F 59% 29.92 in - SE 9.2 mph - N/A   Clear
1:50 PM 64.4 °F 48.2 °F 56% 29.89 in - SE 10.4 mph - N/A   Clear
2:00 PM 65 °F 49 °F 47% 29.92 in 9 mi SE 10.4 mph - -   Clear
2:20 PM 64.4 °F 50.0 °F 59% 29.89 in 6.2 mi SE 10.4 mph - N/A   Partly Cloudy
2:50 PM 64.4 °F 51.8 °F 64% 29.89 in 6.2 mi SE 12.7 mph - N/A   Partly Cloudy
3:20 PM 64.4 °F 50.0 °F 59% 29.86 in 6.2 mi SE 12.7 mph - N/A   Partly Cloudy
3:50 PM 62.6 °F 48.2 °F 59% 29.83 in 6.2 mi SE 12.7 mph - N/A   Partly Cloudy
4:20 PM 64.4 °F 53.6 °F 68% 29.83 in - SE 13.8 mph - N/A   Clear
4:50 PM 62.6 °F 53.6 °F 72% 29.80 in - SE 13.8 mph - N/A   Clear
5:00 PM 63 °F 52 °F 59% 29.83 in 12 mi SE 15.0 mph - -  
5:20 PM 62.6 °F 51.8 °F 68% 29.80 in - SE 15.0 mph - N/A   Clear
5:50 PM 62.6 °F 51.8 °F 68% 29.77 in - SE 15.0 mph - N/A   Clear
6:50 PM 60.8 °F 51.8 °F 72% 29.77 in - SE 15.0 mph - N/A   Clear
7:20 PM 60.8 °F 53.6 °F 77% 29.74 in - ESE 11.5 mph - N/A   Clear
7:50 PM 60.8 °F 53.6 °F 77% 29.74 in - ESE 11.5 mph - N/A   Clear
8:00 PM 61 °F 54 °F 72% 29.77 in 9 mi ESE 12.7 mph - -  
8:20 PM 60.8 °F 55.4 °F 82% 29.77 in - East 12.7 mph - N/A   Clear
8:50 PM 60.8 °F 55.4 °F 82% 29.74 in - East 15.0 mph - N/A   Clear
9:20 PM 60.8 °F 55.4 °F 82% 29.77 in - ENE 13.8 mph - N/A   Clear
9:50 PM 62.6 °F 53.6 °F 72% 29.77 in 6.2 mi ENE 13.8 mph - N/A   Mostly Cloudy
10:20 PM 62.6 °F 53.6 °F 72% 29.77 in 6.2 mi ENE 10.4 mph - N/A Rain Rain
11:00 PM 58 °F 53 °F 78% 29.75 in 11 mi NNE 11.5 mph - - Rain Light Rain
11:20 PM 57.2 °F 53.6 °F 88% 29.77 in 6.2 mi North 4.6 mph - N/A   Partly Cloudy
11:50 PM 57.2 °F 53.6 °F 88% 29.77 in 6.2 mi NNE 8.1 mph - N/A   Partly Cloudy